Regional Weather Roundup
Issued by NWS Burlington, VT

Home | Current Version | Previous Version | Text Only | Print | Product List | Glossary On
Versions: 1 2 3 4 5 6 7 8 9 10 11 12 13 14 15 16 17 18 19 20 21 22 23 24 25 26 27 28 29 30 31 32 33 34 35 36 37 38 39 40 41 42 43 44 45 46 47 48 49 50
274
ASUS41 KBTV 280930
RWRBTV
VERMONT REGIONAL WEATHER ROUNDUP
NATIONAL WEATHER SERVICE BURLINGTON VT
500 AM EDT WED JUN 28 2017

NOTE: "FAIR" INDICATES FEW OR NO CLOUDS BELOW 12,000 FEET WITH NO
SIGNIFICANT WEATHER AND/OR OBSTRUCTIONS TO VISIBILITY.

* THESE REPORTS ARE NOT UNDER NWS QUALITY CONTROL AND/OR DO NOT
  REPORT WEATHER SUCH AS PRECIPITATION AND FOG.

VTZ001>019-281000-
_____VERMONT_____


CITY           SKY/WX    TMP DP  RH WIND       PRES   REMARKS
BURLINGTON     CLOUDY    55  53  93 S5        29.97R
MONTPELIER     CLOUDY    48  48 100 CALM      30.00S
MORRISVILLE    CLOUDY    51  50  96 CALM      29.98R
ST. JOHNSBURY*   N/A     51  51 100 MISG      29.95R
LYNDONVILLE*   CLOUDY    51  50  98 CALM      29.98S FOG
MIDDLEBURY*    MOCLDY    53  51  93 CALM      29.99R
RUTLAND*       CLOUDY    52  49  89 SE3       30.00R
SPRINGFIELD    FOG       48  47  96 CALM      30.00R VSB 1/4
HIGHGATE*      CLOUDY    55  53  94 CALM      29.96R
NEWPORT*       CLOUDY    51  51  97 CALM      29.97R
BENNINGTON     MOCLDY    49  47  93 CALM      30.03R
SUTTON*          N/A     48 N/A N/A MISG        N/A
ISLAND POND*     N/A     50 N/A N/A CALM        N/A
GALLUP MILLS*    N/A     50 N/A N/A MISG        N/A
UNION VILLAGE*   N/A     46 N/A N/A MISG        N/A

_____LAKE CHAMPLAIN_____


CITY           SKY/WX    TMP DP  RH WIND       PRES   REMARKS
BURTON ISLAND*   N/A     57  54  88 S12         N/A
COLCHESTER RF*   N/A     57  55  94 S16         N/A
DIAMOND ISL*     N/A     55  52  88 S7          N/A

$$

NYZ007-026>031-035-052-083-087-281000-
_____NORTHERN NEW YORK_____


CITY           SKY/WX    TMP DP  RH WIND       PRES   REMARKS
PLATTSBURGH    CLOUDY    54  52  93 CALM      29.96R
SARANAC LAKE   CLOUDY    52  52 100 W6        29.98R
MASSENA        CLEAR     52  52 100 SW6       29.98R
OGDENSBURG*    FAIR      52  50  94 CALM      29.99R
POTSDAM*       CLEAR     52  52 100 SW3       29.99R
STARK FALLS*     N/A     52 N/A N/A W2          N/A
WATERTOWN      CLEAR     53  51  93 S3        30.01R
FT DRUM        PTCLDY    54  51  89 SW6       30.01R
ALBANY         PTCLDY    52  49  89 SW6       30.03S
GLENS FALLS    PTCLDY    47  46  97 CALM      30.02R FOG

$$
NHZ002-005-011-281000-
_____NEW HAMPSHIRE_____


CITY           SKY/WX    TMP DP  RH WIND       PRES   REMARKS
LEBANON        FOG       49  49 100 SE3       29.98R VSB 3/4
KEENE          FOG       46  46 100 S3        30.01R VSB 1/4
MT WASHINGTON  LGT RAIN  36  36 100 NW41        N/A  VSB 1/16WCI  21
PLYMOUTH       FAIR      48  47  97 CALM      29.97R
WHITEFIELD     CLOUDY    52  49  89 CALM      29.96S

$$

_____REGIONAL QUEBEC LOCATIONS_____


CITY           SKY/WX    TMP DP  RH WIND       PRES   REMARKS
MONTREAL       CLOUDY    57  54  88 SW9       29.94R
QUEBEC CITY    MOCLDY    52  50  93 CALM      29.89S
SHERBROOKE     CLOUDY    52  52 100 SW6       29.94R

_____REGIONAL ONTARIO LOCATIONS_____


CITY           SKY/WX    TMP DP  RH WIND       PRES   REMARKS
OTTAWA         PTCLDY    50  48  93 W6        29.96S

______KEY______
VSB  - VISIBILITY IN MILES
WCI  - WIND CHILL INDEX
HX   - HEAT INDEX
$$
NNNN




USA.gov is the U.S. government's official web portal to all federal, state and local government web resources and services.